DW8248 Weather Reports


time (UTC)temp
C
wind
direction
speed
KPH
gust
KPH
rain 1hr
cm
rain 24hr
cm
rain mn
cm
humidity
%
barometer
mb
20260901081841 28 336 0.0 1.6 0.00 0.00 0.00 86 1014.7
20260901080837 27 336 0.0 4.8 0.00 0.00 0.00 86 1014.7
20260901075809 28 336 1.6 4.8 0.00 0.00 0.00 86 1014.7
20260901074823 28 341 1.6 3.2 0.00 0.00 0.00 86 1014.7
20260901073803 28 341 0.0 3.2 0.00 0.00 0.00 86 1014.8
20260901072728 28 44 0.0 0.0 0.00 0.00 0.00 86 1014.9
20260901070545 27 44 0.0 0.0 0.00 0.00 0.00 85 1015.0
20260901062128 28 136 0.0 0.0 0.00 0.79 0.00 84 1015.4
20260901061130 28 136 0.0 0.0 0.00 0.79 0.00 84 1015.5
20260901054958 28 136 0.0 1.6 0.00 0.79 0.00 84 1015.7
20260901053939 28 116 0.0 4.8 0.00 0.91 0.00 84 1015.8
20260901052912 28 117 1.6 9.7 0.00 0.91 0.00 84 1015.9
20260901051913 28 112 3.2 9.7 0.00 0.91 0.00 85 1015.9
20260901050848 28 99 1.6 8.0 0.00 0.91 0.00 85 1016.1
20260901045903 28 107 0.0 1.6 0.00 0.91 0.00 86 1016.3
20260901043719 28 5 0.0 0.0 0.00 0.91 0.00 85 1016.2
20260901042709 28 5 0.0 0.0 0.00 0.91 0.00 86 1016.2
20260901041707 28 5 0.0 0.0 0.00 0.91 0.00 85 1016.3
20260901040646 28 5 0.0 0.0 0.00 0.91 0.00 85 1016.3
20260901035626 28 32 0.0 0.0 0.00 0.91 0.91 85 1016.3
20260901033420 28 50 0.0 3.2 0.00 0.91 0.91 85 1016.1
20260901032345 28 15 0.0 0.0 0.00 0.91 0.91 85 1016.2
20260901031358 28 30 0.0 0.0 0.00 0.91 0.91 85 1016.4
20260901030413 28 30 0.0 3.2 0.00 0.91 0.91 84 1016.5
20260901025338 28 24 1.6 6.4 0.00 0.91 0.91 84 1016.5
20260901023303 28 41 1.6 4.8 0.00 0.91 0.91 84 1016.6
20260901021227 28 40 1.6 4.8 0.00 0.91 0.91 84 1016.6
20260901015107 28 42 1.6 4.8 0.00 0.91 0.91 83 1016.2
20260901014035 28 38 1.6 4.8 0.00 0.91 0.91 83 1016.1
20260901013014 28 62 0.0 4.8 0.00 0.91 0.91 83 1016.0
20260901010806 28 82 1.6 4.8 0.00 0.91 0.91 83 1015.8
20260901005811 28 65 1.6 8.0 0.00 0.91 0.91 82 1015.7
20260901004834 28 76 3.2 9.7 0.00 0.91 0.91 82 1015.6
20260901003852 28 20 4.8 12.9 0.00 0.91 0.91 81 1015.6
20260901002903 28 58 4.8 12.9 0.00 0.91 0.91 81 1015.5
20260901001850 28 44 4.8 11.3 0.00 0.91 0.91 80 1015.6
20260901000906 28 22 4.8 11.3 0.00 0.91 0.91 79 1015.7
20260831234809 28 30 3.2 14.5 0.00 0.91 0.91 79 1015.6
20260831233822 28 9 4.8 14.5 0.00 0.91 0.91 79 1015.5
20260831231653 28 13 6.4 12.9 0.00 0.91 0.91 80 1015.3
20260831230639 28 44 4.8 14.5 0.00 0.91 0.91 80 1015.4
20260831225636 28 11 8.0 14.5 0.00 0.91 0.91 80 1015.4
20260831224619 28 5 6.4 17.7 0.00 0.91 0.91 80 1015.4
20260831223620 28 33 9.7 17.7 0.00 0.91 0.91 79 1015.4
20260831221457 28 43 4.8 12.9 0.00 0.91 0.91 79 1015.6
20260831220507 28 53 4.8 12.9 0.00 0.91 0.91 81 1015.6
20260831215450 28 33 6.4 11.3 0.00 0.91 0.91 83 1015.7
20260831214443 28 345 4.8 12.9 0.00 0.91 0.91 83 1015.8
20260831213416 28 5 4.8 12.9 0.00 0.91 0.91 83 1015.7
20260831212426 28 347 6.4 11.3 0.00 0.91 0.91 81 1015.6
20260831211359 28 9 3.2 9.7 0.00 0.91 0.91 80 1015.6
20260831210415 28 30 3.2 9.7 0.00 0.91 0.91 78 1015.8
20260831205349 28 342 3.2 6.4 0.00 0.91 0.91 77 1015.9
20260831203218 28 37 4.8 14.5 0.00 0.91 0.91 77 1015.9
20260831202153 28 19 6.4 14.5 0.00 0.91 0.91 78 1016.1
20260831200020 28 56 4.8 12.9 0.00 0.91 0.91 79 1016.1
20260831194952 29 48 8.0 17.7 0.00 0.91 0.91 81 1016.2
20260831194013 29 350 9.7 17.7 0.00 0.91 0.91 81 1016.2
20260831193007 30 26 6.4 14.5 0.00 0.91 0.91 82 1016.1
20260831191946 30 36 8.0 16.1 0.00 0.91 0.91 81 1016.2
20260831190912 30 5 8.0 17.7 0.00 0.91 0.91 81 1016.3
20260831185852 30 15 9.7 17.7 0.00 0.91 0.91 82 1016.4
20260831184839 30 28 9.7 17.7 0.00 0.91 0.91 82 1016.2
20260831183849 30 5 11.3 19.3 0.00 0.91 0.91 81 1016.3
20260831182905 30 38 9.7 19.3 0.00 0.91 0.91 79 1016.4
20260831181912 30 46 8.0 19.3 0.00 0.94 0.91 79 1016.2
20260831180859 30 0 9.7 17.7 0.00 0.94 0.91 80 1016.3
20260831174757 30 36 8.0 19.3 0.00 1.02 0.91 80 1016.5
20260831173728 30 5 9.7 17.7 0.00 1.09 0.91 80 1016.7
20260831172732 30 58 11.3 17.7 0.00 1.14 0.91 81 1016.6
20260831171716 30 23 9.7 19.3 0.00 1.17 0.91 81 1016.7
20260831170733 30 24 11.3 19.3 0.00 1.22 0.91 81 1016.8
20260831165713 30 53 8.0 16.1 0.00 1.22 0.91 82 1016.8
20260831164711 30 34 9.7 17.7 0.00 1.24 0.91 82 1016.7
20260831162444 30 37 8.0 16.1 0.00 1.27 0.91 82 1017.1
20260831161437 30 11 9.7 14.5 0.00 1.27 0.91 81 1017.4
20260831160444 30 29 8.0 14.5 0.00 1.27 0.91 80 1017.4
20260831155438 30 56 8.0 12.9 0.00 1.27 0.91 79 1017.6
20260831154407 30 5 6.4 12.9 0.00 1.27 0.91 80 1017.4
20260831153424 30 38 6.4 14.5 0.00 1.27 0.91 81 1017.5
20260831152422 30 47 6.4 14.5 0.00 1.27 0.91 80 1017.5
20260831151349 29 44 6.4 12.9 0.00 1.27 0.91 80 1017.5
20260831150355 29 33 6.4 12.9 0.00 1.27 0.91 81 1017.3
20260831145330 29 16 4.8 12.9 0.00 1.27 0.91 81 1017.1
20260831144257 29 26 6.4 12.9 0.00 1.27 0.91 81 1017.3
20260831143244 29 15 8.0 12.9 0.00 1.27 0.91 81 1017.3
20260831142237 29 5 6.4 12.9 0.00 1.27 0.91 81 1017.3
20260831141245 29 15 8.0 11.3 0.00 1.27 0.91 81 1017.2
20260831140236 29 57 4.8 9.7 0.00 1.27 0.91 81 1017.1
20260831135206 29 321 3.2 12.9 0.00 1.27 0.91 82 1017.1
20260831134221 28 349 6.4 12.9 0.00 1.27 0.91 83 1017.0
20260831133146 28 5 6.4 11.3 0.00 1.27 0.91 82 1016.9
20260831132205 28 355 4.8 11.3 0.00 1.27 0.91 84 1016.8
20260831131144 28 15 3.2 9.7 0.00 1.27 0.91 85 1016.6
20260831130158 28 355 4.8 9.7 0.00 1.27 0.91 85 1016.6
20260831125145 28 355 4.8 9.7 0.00 1.27 0.91 85 1016.5
20260831124143 28 13 1.6 6.4 0.00 1.27 0.91 86 1016.3
20260831123143 27 0 3.2 6.4 0.00 1.27 0.91 87 1016.5
20260831122107 27 342 3.2 4.8 0.00 1.27 0.91 87 1016.5
20260831121029 27 355 1.6 4.8 0.00 1.24 0.89 87 1016.4
20260831115959 27 9 1.6 4.8 0.00 1.24 0.89 87 1016.2
20260831113847 26 9 1.6 3.2 0.00 1.24 0.89 87 1016.1
20260831112841 26 21 1.6 4.8 0.00 1.24 0.89 87 1016.0
20260831111816 26 13 1.6 4.8 0.00 1.24 0.89 87 1015.8
20260831110834 26 16 1.6 3.2 0.00 1.24 0.89 86 1015.6
20260831105816 26 16 1.6 3.2 0.00 1.24 0.89 86 1015.5
20260831103714 26 0 0.0 3.2 0.00 1.24 0.89 85 1015.3
20260831102706 27 329 1.6 3.2 0.00 1.24 0.89 85 1015.2
20260831101713 26 5 0.0 1.6 0.00 1.24 0.89 84 1015.2
20260831100702 26 128 0.0 0.0 0.00 1.24 0.89 83 1015.3
20260831095638 26 128 0.0 4.8 0.00 1.24 0.89 83 1015.1
20260831094658 26 143 1.6 4.8 0.00 1.24 0.89 83 1015.0
20260831093632 26 131 0.0 4.8 0.00 1.24 0.89 84 1015.0
20260831092603 26 147 1.6 4.8 0.00 1.24 0.89 84 1015.0
20260831090447 26 113 1.6 6.4 0.00 1.24 0.89 86 1015.1
20260831085422 26 124 1.6 3.2 0.00 1.24 0.89 86 1015.1
20260831084359 26 109 1.6 3.2 0.00 1.24 0.89 86 1015.1
20260831083334 26 121 0.0 3.2 0.00 1.24 0.89 86 1015.2